DW2770 Cefalu IT current weather conditions

sailwx.info

Wind from 270 at 6 knots gusting 7

Air temperature 11.1° C
Dewpoint 3.2° C

Last reported at 2015-Jan-29 11:50 UTC.
Time now 2015-Jan-29 12:25 UTC

Location: N 38°02' E 014°02'.
View on Google Maps.

See reports from other nearby stations

  
Tides and Currents Weather Stations Pressure Air Temp Water Temp Dewpoint Dewpoint Depression Visibility Wind Speed Wind Dir Waves Ship Positions
date/time (UTC)wind fromknots sea level pressurealtimeterstation pressurevisibilityair tempwater tempwave heightnotes
2015-Jan-29 11:50 270 6 gusting 7 11.1
2015-Jan-29 11:40 282 7 gusting 10 11.1
2015-Jan-29 11:30 271 2 gusting 6 10.6
2015-Jan-29 11:20 225 5 gusting 8 10.6
2015-Jan-29 11:10 275 4 gusting 7 11.1
2015-Jan-29 11:00 188 2 gusting 6 10.6
2015-Jan-29 10:50 248 5 gusting 11 11.1
2015-Jan-29 10:40 315 10 gusting 11 10.6
2015-Jan-29 10:30 304 4 gusting 5 10.6
2015-Jan-29 10:20 270 5 gusting 6 10.6
2015-Jan-29 10:10 249 6 gusting 11 10.6
2015-Jan-29 10:00 251 3 gusting 11 10.6
2015-Jan-29 09:50 292 2 gusting 7 10.6
2015-Jan-29 09:40 246 5 gusting 7 10.6
2015-Jan-29 09:30 223 0 gusting 5 10.6
2015-Jan-29 09:20 315 3 gusting 6 10.6
2015-Jan-29 09:10 269 1 gusting 6 10.6
2015-Jan-29 09:00 243 3 gusting 6 10.0
2015-Jan-29 08:50 248 4 gusting 5 10.0
2015-Jan-29 08:40 234 2 gusting 10 10.0
2015-Jan-29 08:30 308 9 gusting 10 10.0
2015-Jan-29 08:20 180 4 gusting 6 10.0
2015-Jan-29 08:10 290 6 gusting 10 10.0
2015-Jan-29 08:00 310 6 gusting 12 10.0
2015-Jan-29 07:50 315 5 gusting 6 10.0
2015-Jan-29 07:40 152 0 gusting 6 9.4
2015-Jan-29 07:30 294 5 gusting 8 9.4
2015-Jan-29 07:20 248 5 gusting 6 9.4
2015-Jan-29 07:10 173 1 gusting 6 9.4
2015-Jan-29 07:00 311 2 gusting 5 9.4
2015-Jan-29 06:50 248 3 gusting 5 9.4
2015-Jan-29 05:50 225 8 gusting 10 9.4
2015-Jan-29 05:40 258 6 gusting 8 10.0
2015-Jan-29 05:30 248 3 gusting 4 10.6
2015-Jan-29 05:20 10.0
2015-Jan-29 05:10 257 6 gusting 7 10.0
2015-Jan-29 05:00 268 6 gusting 7 10.0
2015-Jan-29 04:50 090 1 gusting 4 10.0
2015-Jan-29 04:40 266 2 gusting 7 10.0
2015-Jan-29 04:30 277 6 gusting 7 10.0
2015-Jan-29 04:20 225 5 gusting 10 10.0
2015-Jan-29 04:10 231 11 gusting 15 10.0
2015-Jan-29 04:00 261 5 gusting 10 10.0
2015-Jan-29 03:50 248 4 gusting 11 10.0
2015-Jan-29 03:40 225 10 gusting 11 10.0
2015-Jan-29 03:30 267 7 gusting 8 10.0
2015-Jan-29 03:20 225 6 gusting 7 10.0
2015-Jan-29 03:10 248 3 gusting 5 10.0
2015-Jan-29 03:00 283 1 gusting 7 10.0
2015-Jan-29 02:50 225 4 gusting 7 10.0
2015-Jan-29 02:40 292 6 gusting 7 10.0
2015-Jan-29 02:30 245 7 gusting 7 10.0
2015-Jan-29 02:20 202 5 gusting 11 10.0
2015-Jan-29 02:10 221 9 gusting 11 10.0
2015-Jan-29 02:00 294 2 gusting 7 10.0
2015-Jan-29 01:50 248 6 gusting 8 10.0
2015-Jan-29 01:40 225 6 gusting 6 10.0
2015-Jan-29 01:30 219 5 gusting 6 10.0
2015-Jan-29 01:20 270 5 gusting 13 10.0
2015-Jan-29 01:10 180 4 gusting 13 10.0
2015-Jan-29 01:00 201 5 gusting 12 10.0
2015-Jan-29 00:50 225 9 gusting 14 10.0
2015-Jan-29 00:40 125 2 gusting 7 10.0
2015-Jan-29 00:30 219 4 gusting 6 10.0
2015-Jan-29 00:20 225 2 gusting 11 10.0
2015-Jan-29 00:10 202 1 gusting 2 10.0
2015-Jan-29 00:00 141 0 gusting 14 9.4
2015-Jan-28 23:50 270 6 gusting 10 9.4
2015-Jan-28 23:40 112 1 gusting 11 9.4
2015-Jan-28 23:30 068 1 gusting 10 9.4
2015-Jan-28 23:20 068 5 gusting 11 9.4
2015-Jan-28 23:10 061 6 gusting 6 8.9
2015-Jan-28 23:00 090 0 gusting 7 7.8
2015-Jan-28 22:50 090 3 gusting 5 7.8
2015-Jan-28 22:40 068 0 gusting 8 7.2
2015-Jan-28 22:30 183 5 gusting 6 7.2
2015-Jan-28 22:20 090 3 gusting 10 7.8
2015-Jan-28 22:10 292 10 gusting 14 7.8
2015-Jan-28 22:00 248 8 gusting 19 8.3
2015-Jan-28 21:50 225 12 gusting 19 8.3
2015-Jan-28 21:40 245 11 gusting 14 7.8
2015-Jan-28 21:30 321 6 gusting 14 7.2
2015-Jan-28 21:20 315 2 gusting 11 7.8
2015-Jan-28 21:10 245 9 gusting 11 7.8
2015-Jan-28 21:00 234 3 gusting 6 8.3
2015-Jan-28 20:50 248 0 gusting 6 8.3
2015-Jan-28 20:40 047 2 gusting 6 7.8
2015-Jan-28 20:30 188 0 gusting 6 7.8
2015-Jan-28 20:20 338 5 gusting 8 7.8
2015-Jan-28 20:10 040 4 gusting 13 6.7
2015-Jan-28 20:00 254 13 gusting 15 6.7
2015-Jan-28 19:50 180 10 gusting 15 7.2
2015-Jan-28 19:40 243 2 gusting 12 7.2
2015-Jan-28 19:30 185 12 gusting 13 7.2
2015-Jan-28 19:20 045 17 gusting 22 7.2
2015-Jan-28 19:10 175 1 gusting 10 7.2
2015-Jan-28 19:00 315 8 gusting 8 7.2
2015-Jan-28 18:50 292 8 gusting 21 7.2
2015-Jan-28 18:40 248 7 gusting 17 6.7
2015-Jan-28 18:30 202 12 gusting 18 6.7
2015-Jan-28 18:20 217 17 gusting 24 7.2
2015-Jan-28 18:09 225 10 gusting 12 6.7
2015-Jan-28 17:59 090 8 gusting 14 6.7
2015-Jan-28 17:50 172 1 gusting 14 6.1
2015-Jan-28 17:40 248 4 gusting 6 6.7
2015-Jan-28 17:30 202 1 gusting 13 6.7
2015-Jan-28 17:20 299 13 gusting 15 6.1
2015-Jan-28 17:10 225 7 gusting 13 6.1
2015-Jan-28 17:00 246 13 gusting 18 6.1
2015-Jan-28 16:50 288 5 gusting 14 6.7
2015-Jan-28 16:40 248 4 gusting 10 6.7
2015-Jan-28 16:30 250 10 gusting 14 6.1
2015-Jan-28 16:20 264 2 gusting 13 6.1
2015-Jan-28 16:10 202 7 gusting 13 5.6
2015-Jan-28 16:00 182 6.1
2015-Jan-28 15:50 202 6.1
2015-Jan-28 15:40 202 0 gusting 6 5.6
2015-Jan-28 15:30 206 6 gusting 12 5.6
2015-Jan-28 15:20 254 0 gusting 12 5.6
2015-Jan-28 15:10 202 7 gusting 11 6.1
2015-Jan-28 15:00 121 4 gusting 13 5.6
2015-Jan-28 14:50 228 9 gusting 12 6.1
2015-Jan-28 14:40 270 6 gusting 10 6.1
2015-Jan-28 14:30 206 10 gusting 18 6.1
2015-Jan-28 14:20 225 11 gusting 13 6.7
2015-Jan-28 14:10 338 9 gusting 18 7.2
2015-Jan-28 14:00 335 4 gusting 11 7.8
2015-Jan-28 13:50 254 8 gusting 11 7.8
2015-Jan-28 13:20 202 5 gusting 6 8.3
2015-Jan-28 13:10 7.8
2015-Jan-28 13:00 208 5 gusting 10 7.8
2015-Jan-28 12:50 276 5 gusting 12 7.8
2015-Jan-28 12:40 225 6 gusting 6 7.8
2015-Jan-28 12:30 291 7.8
2015-Jan-28 12:20 264 5 gusting 7 7.8
2015-Jan-28 12:10 225 5 gusting 7 7.8
2015-Jan-28 12:00 315 6 gusting 7 7.8
2015-Jan-28 11:50 292 6 gusting 7 7.2
2015-Jan-28 11:40 083 5 gusting 6 7.2
2015-Jan-28 11:30 309 5 gusting 12 7.2
2015-Jan-28 11:20 254 8 gusting 10 7.2
2015-Jan-28 11:10 315 4 gusting 12 7.2
2015-Jan-28 11:00 247 6 gusting 10 7.2
2015-Jan-28 10:50 286 6 gusting 11 7.2
2015-Jan-28 10:40 248 8 gusting 11 7.2
2015-Jan-28 10:30 271 7 gusting 15 7.2
2015-Jan-28 09:29 202 15 gusting 18 9.4
2015-Jan-28 09:19 225 12 gusting 14 9.4
2015-Jan-28 09:09 225 14 gusting 14 9.4
2015-Jan-28 08:59 225 6 gusting 11 8.9
2015-Jan-28 08:49 225 10 gusting 11 8.9
2015-Jan-28 08:39 248 11 gusting 11 9.4
2015-Jan-28 08:29 202 10 gusting 15 9.4
2015-Jan-28 08:19 202 14 gusting 15 9.4
2015-Jan-28 08:09 211 11 gusting 13 8.9
2015-Jan-28 07:59 202 13 gusting 14 8.9
2015-Jan-28 07:49 202 4 gusting 11 8.9
2015-Jan-28 07:39 212 10 gusting 11 8.3
2015-Jan-28 07:29 180 6 gusting 11 8.3
2015-Jan-28 07:19 180 6 gusting 12 8.9
2015-Jan-28 07:09 202 7 gusting 12 8.9
2015-Jan-28 06:59 202 6 gusting 10 8.9
2015-Jan-28 06:49 180 7 gusting 8 8.9
2015-Jan-28 05:39 192 6 gusting 7 8.9
2015-Jan-28 05:29 202 8 gusting 8 8.9
2015-Jan-28 05:19 202 5 gusting 7 8.9
2015-Jan-28 05:09 202 6 gusting 8 8.9
2015-Jan-28 04:59 202 8 gusting 8 8.9
2015-Jan-28 04:49 202 6 gusting 11 8.3
2015-Jan-28 04:39 215 7 gusting 8 8.3
2015-Jan-28 04:29 225 7 gusting 7 8.3
2015-Jan-28 04:19 202 2 gusting 2 8.3
2015-Jan-28 04:09 248 1 gusting 1 8.3
2015-Jan-28 03:59 315 8.3
2015-Jan-28 03:49 292 1 gusting 2 8.9
2015-Jan-28 03:39 212 2 gusting 5 8.9
2015-Jan-28 03:29 225 6 gusting 7 9.4
2015-Jan-28 03:19 202 6 gusting 7 9.4
2015-Jan-28 03:09 202 6 gusting 7 9.4
2015-Jan-28 02:59 218 6 gusting 10 8.9
2015-Jan-28 02:49 202 8 gusting 10 8.9
2015-Jan-28 02:39 195 7 gusting 10 8.9
2015-Jan-28 02:29 180 6 gusting 12 8.9
2015-Jan-28 02:19 202 8 gusting 10 8.9
2015-Jan-28 02:09 208 8 gusting 13 8.9
2015-Jan-28 01:59 202 4 gusting 6 8.9
2015-Jan-28 01:49 202 4 gusting 6 8.3
2015-Jan-28 01:39 225 4 gusting 7 8.3
2015-Jan-28 01:29 202 4 gusting 7 8.3
2015-Jan-28 01:19 180 5 gusting 6 8.3
2015-Jan-28 01:09 217 2 gusting 4 8.3
2015-Jan-28 00:59 203 3 gusting 6 8.3
2015-Jan-28 00:49 225 5 gusting 6 8.3
2015-Jan-28 00:39 202 6 gusting 8 8.3
2015-Jan-28 00:29 202 5 gusting 8 8.3
2015-Jan-28 00:19 202 6 gusting 12 8.3
2015-Jan-28 00:09 202 12 gusting 13 8.3
2015-Jan-27 23:59 224 8 gusting 13 7.8
2015-Jan-27 23:49 202 12 gusting 13 7.8
2015-Jan-27 23:39 210 12 gusting 12 7.8
2015-Jan-27 23:29 202 2 gusting 10 7.8
2015-Jan-27 23:19 225 8 gusting 13 8.3
2015-Jan-27 23:09 191 6 gusting 6 8.3
2015-Jan-27 22:59 225 4 gusting 6 8.3
2015-Jan-27 22:49 225 4 gusting 8 8.9
2015-Jan-27 22:39 262 2 gusting 7 8.9
2015-Jan-27 22:29 202 7 gusting 8 8.9
2015-Jan-27 22:19 225 6 gusting 8 8.9
2015-Jan-27 22:09 212 5 gusting 7 8.9
2015-Jan-27 21:59 202 7 gusting 8 8.9
2015-Jan-27 21:49 202 8 gusting 10 8.9
2015-Jan-27 21:39 186 5 gusting 11 8.9
2015-Jan-27 21:29 202 6 gusting 13 8.3
2015-Jan-27 21:19 225 6 gusting 14 8.3
2015-Jan-27 21:09 186 10 gusting 14 8.9
2015-Jan-27 20:59 202 11 gusting 11 8.3
2015-Jan-27 20:49 202 7 gusting 10 8.3
2015-Jan-27 20:39 202 9 gusting 10 8.3
2015-Jan-27 20:29 184 6 gusting 13 8.9
2015-Jan-27 20:19 202 8 gusting 11 8.9
2015-Jan-27 20:09 202 8 gusting 12 8.3
2015-Jan-27 19:59 204 7 gusting 7 8.3
2015-Jan-27 19:49 180 6 gusting 8 8.3
2015-Jan-27 19:39 240 5 gusting 10 8.3
2015-Jan-27 19:29 223 6 gusting 6 8.3
2015-Jan-27 19:19 202 5 gusting 7 8.3
2015-Jan-27 19:09 222 6 gusting 10 8.3
2015-Jan-27 18:59 202 9 gusting 10 8.3
2015-Jan-27 18:49 202 6 gusting 7 8.3
2015-Jan-27 18:39 221 6 gusting 8 8.3
2015-Jan-27 18:29 238 8 gusting 8 8.3
2015-Jan-27 18:19 225 1 gusting 6 8.3
2015-Jan-27 18:09 247 5 gusting 6 8.3
2015-Jan-27 17:59 263 2 gusting 6 8.3
2015-Jan-27 17:49 248 6 gusting 6 8.3
2015-Jan-27 17:39 202 4 gusting 6 8.3
2015-Jan-27 17:29 235 6 gusting 7 8.3
2015-Jan-27 17:19 225 7 gusting 8 8.3
2015-Jan-27 17:09 225 7 gusting 11 8.3
2015-Jan-27 16:59 186 7 gusting 7 8.3
2015-Jan-27 16:49 180 5 gusting 5 8.3
2015-Jan-27 16:39 202 4 gusting 4 8.9
2015-Jan-27 16:29 077 1 gusting 6 8.9
2015-Jan-27 16:19 248 6 gusting 8 10.0
2015-Jan-27 16:09 205 6 gusting 8 10.6
2015-Jan-27 15:59 248 5 gusting 5 10.6
2015-Jan-27 15:49 202 4 gusting 6 10.6
2015-Jan-27 15:39 225 5 gusting 6 10.6
2015-Jan-27 15:29 273 2 gusting 5 10.6
2015-Jan-27 15:19 315 3 gusting 7 11.1
2015-Jan-27 15:09 271 5 gusting 7 11.1
2015-Jan-27 14:59 262 6 gusting 6 11.1
2015-Jan-27 14:49 248 8 gusting 12 11.1
2015-Jan-27 14:39 270 4 gusting 10 11.1
2015-Jan-27 14:29 275 9 gusting 10 11.1
2015-Jan-27 14:19 338 6 gusting 8 10.6
2015-Jan-27 14:09 270 8 gusting 12 10.6
2015-Jan-27 13:59 256 11 gusting 12 10.6
2015-Jan-27 13:49 270 7 gusting 7 10.6
2015-Jan-27 13:39 225 4 gusting 10 10.6
2015-Jan-27 13:29 292 5 gusting 5 10.6
2015-Jan-27 13:19 292 6 gusting 7 10.6
2015-Jan-27 13:09 269 7 gusting 7 10.6
2015-Jan-27 12:59 168 4 gusting 8 10.6
2015-Jan-27 12:49 270 10 gusting 12 10.6
2015-Jan-27 12:39 225 10 gusting 12 10.0
2015-Jan-27 12:29 232 8 gusting 12 10.0
2015-Jan-27 12:19 225 10 gusting 13 9.4
2015-Jan-27 12:09 225 12 gusting 17 9.4